Weather History for K0J4 - February, 2014

Change the Weather History Date:

Thursday, February 20, 2014

  Actual Average (KCEW) Record (KCEW)
Temperature  
Mean Temperature 70 °F -  
Max Temperature 75 °F 69 °F 78 °F (1949)
Min Temperature 64 °F 43 °F 19 °F (2015)
Cooling Degree Days 4    
Growing Degree Days 20 (Base 50)    
Moisture  
Dew Point 63 °F    
Average Humidity 81    
Maximum Humidity 94    
Minimum Humidity 60    
Precipitation  
Precipitation 0.01 in - - ()
Sea Level Pressure  
Sea Level Pressure 30.03 in    
Wind  
Wind Speed 10 mph (South)    
Max Wind Speed 22 mph    
Max Gust Speed 30 mph    
Visibility 9 miles    
Events Rain    
Averages and records for this station are not official NWS values.
T = Trace of Precipitation, MM = Missing Value Source: NWS Daily Summary

Daily Weather History Graph

Daily Weather History Graph

Search for Another Location

Airport or City:

Trip Planner

Search our weather history database for the weather conditions in past years. The results will help you decide how hot, cold, wet, or windy it might be!

Date:

Astronomy

Feb. 20, 2014 Rise Set
Actual Time 6:21 AM CST 5:36 PM CST
Civil Twilight 5:56 AM CST 6:01 PM CST
Nautical Twilight 5:28 AM CST 6:29 PM CST
Astronomical Twilight 5:00 AM CST 6:57 PM CST
Moon 11:05 PM CST (2/20) 9:27 AM CST (2/20)
Length of Visible Light 12h 04m
Length of Day
11h 15m
Waning Gibbous, 70% of the Moon is Illuminated
Feb 20
Waning Gibbous
Feb 22
Last Quarter
Mar 1
New
Mar 8
First Quarter
Mar 16
Full

Hourly Weather History & Observations

Time (CST) Temp. Dew Point Humidity Pressure Visibility Wind Dir Wind Speed Gust Speed Precip Events Conditions
12:51 AM 64.4 °F 62.6 °F 94% 30.07 in 10.0 mi South 6.9 mph - N/A   Overcast
12:58 AM 64.0 °F 62.1 °F 93% 30.06 in 10.0 mi South 8.1 mph - N/A   Overcast
1:24 AM 64.4 °F 62.6 °F 94% 30.07 in 10.0 mi South 5.8 mph - N/A   Overcast
1:58 AM 64.0 °F 62.1 °F 93% 30.06 in 5.0 mi South 5.8 mph - N/A   Overcast
2:02 AM 64.4 °F 62.6 °F 94% 30.06 in 5.0 mi South 5.8 mph - N/A   Overcast
2:58 AM 64.0 °F 62.1 °F 93% 30.05 in 8.0 mi SSE 3.5 mph - N/A   Overcast
3:28 AM 64.4 °F 62.6 °F 94% 30.05 in 7.0 mi SSE 5.8 mph - N/A   Overcast
3:58 AM 64.0 °F 62.1 °F 93% 30.04 in 10.0 mi SSE 4.6 mph - N/A   Overcast
4:58 AM 64.0 °F 62.1 °F 93% 30.03 in 10.0 mi SSE 5.8 mph - N/A   Overcast
5:58 AM 64.0 °F 62.1 °F 93% 30.05 in 10.0 mi SSE 5.8 mph - N/A   Overcast
6:58 AM 64.9 °F 63.0 °F 93% 30.06 in 10.0 mi South 6.9 mph - N/A   Overcast
7:58 AM 66.0 °F 62.1 °F 87% 30.07 in 10.0 mi South 9.2 mph - N/A   Overcast
8:43 AM 68.0 °F 62.6 °F 83% 30.09 in 10.0 mi South 10.4 mph - N/A   Mostly Cloudy
8:58 AM 70.0 °F 62.1 °F 76% 30.08 in 10.0 mi South 9.2 mph - N/A   Mostly Cloudy
9:11 AM 69.8 °F 62.6 °F 78% 30.09 in 10.0 mi South 10.4 mph - N/A   Scattered Clouds
9:58 AM 73.9 °F 61.0 °F 64% 30.07 in 10.0 mi South 19.6 mph 29.9 mph N/A   Mostly Cloudy
10:58 AM 75.0 °F 61.0 °F 62% 30.07 in 10.0 mi SSW 21.9 mph 28.8 mph N/A   Mostly Cloudy
11:12 AM 73.4 °F 60.8 °F 65% 30.07 in 10.0 mi SSW 17.3 mph 28.8 mph N/A   Mostly Cloudy
11:24 AM 75.2 °F 62.6 °F 65% 30.07 in 10.0 mi SSW 18.4 mph 25.3 mph N/A   Mostly Cloudy
11:48 AM 75.2 °F 60.8 °F 61% 30.06 in 10.0 mi South 18.4 mph 26.5 mph N/A   Mostly Cloudy
11:58 AM 75.0 °F 61.0 °F 62% 30.04 in 10.0 mi SSW 13.8 mph 26.5 mph N/A   Mostly Cloudy
12:42 PM 75.2 °F 60.8 °F 61% 30.03 in 10.0 mi SSW 17.3 mph 28.8 mph N/A   Scattered Clouds
12:58 PM 75.9 °F 61.0 °F 60% 30.02 in 10.0 mi South 13.8 mph 24.2 mph N/A   Scattered Clouds
1:58 PM 73.9 °F 62.1 °F 66% 30.01 in 10.0 mi SSW 16.1 mph - N/A   Overcast
2:05 PM 73.4 °F 62.6 °F 69% 30.02 in 10.0 mi SSW 16.1 mph - N/A   Overcast
2:15 PM 75.2 °F 62.6 °F 65% 30.02 in 10.0 mi SSW 16.1 mph 21.9 mph N/A   Overcast
2:58 PM 75.0 °F 63.0 °F 66% 30.01 in 10.0 mi South 15.0 mph - N/A   Mostly Cloudy
3:14 PM 73.4 °F 64.4 °F 73% 30.02 in 10.0 mi South 13.8 mph - N/A   Mostly Cloudy
3:58 PM 72.0 °F 64.9 °F 78% 30.01 in 10.0 mi SSW 11.5 mph - N/A   Overcast
4:58 PM 71.1 °F 64.9 °F 81% 30.01 in 10.0 mi South 9.2 mph 18.4 mph N/A   Overcast
5:05 PM 71.6 °F 64.4 °F 78% 30.02 in 10.0 mi South 8.1 mph - N/A   Overcast
5:50 PM 69.8 °F 64.4 °F 83% 30.02 in 10.0 mi South 11.5 mph 19.6 mph N/A   Overcast
5:58 PM 69.1 °F 64.9 °F 87% 30.01 in 10.0 mi South 10.4 mph 19.6 mph N/A   Overcast
6:58 PM 69.1 °F 64.9 °F 87% 30.00 in 10.0 mi South 12.7 mph - N/A   Overcast
7:58 PM 68.0 °F 66.0 °F 93% 30.00 in 7.0 mi South 8.1 mph - N/A   Overcast
8:37 PM 68.0 °F 66.2 °F 94% 30.00 in 4.0 mi South 8.1 mph - 0.00 in   Overcast
8:58 PM 68.0 °F 66.0 °F 93% 29.99 in 5.0 mi South 10.4 mph - 0.00 in   Overcast
9:58 PM 68.0 °F 66.0 °F 93% 29.97 in 4.0 mi South 9.2 mph - 0.00 in Rain Light Rain
10:58 PM 68.0 °F 66.0 °F 93% 29.96 in 9.0 mi South 8.1 mph - 0.01 in Rain Light Rain
11:58 PM 68.0 °F 66.0 °F 93% 29.94 in 7.0 mi SSW 11.5 mph - 0.00 in   Overcast